Location: Bitche
(49.0501°N, 7.4267°E)
Time: 01:24:10
(UTC+00:00)

Daily predictions for brighter satellites

Satellite Brightness Start Highest point End
(mag) Time Altitude Azimuth Time Altitude Azimuth Time Altitude Azimuth
STARLINK-1247 3.7 00:00:23 10° WNW 00:03:27 50° NNE 00:06:31 10° E
STARLINK-1227 3.7 00:00:51 10° WNW 00:03:54 50° NNE 00:06:55 10° E
STARLINK-1099 4.4 00:00:23 10° WNW 00:03:25 34° WSW 00:03:25 34° WSW
ATLAS CENTAUR R/B 3.2 00:02:27 10° NNW 00:04:24 27° NNE 00:07:37 10° E
STARLINK-1226 3.7 00:01:42 10° WNW 00:04:46 51° NNE 00:07:49 10° E
STARLINK-1215 3.7 00:02:39 10° WNW 00:05:43 51° NNE 00:08:46 10° E
STARLINK-1225 4.4 00:01:38 10° W 00:05:43 53° N 00:09:47 10° ENE
STARLINK-1217 3.7 00:04:25 10° WNW 00:07:29 52° NNE 00:10:33 10° E
STARLINK-1229 3.6 00:05:20 10° WNW 00:08:24 53° NNE 00:11:29 10° E
STARLINK-1270 3.6 00:06:11 10° WNW 00:09:16 53° NNE 00:12:21 10° E
Cosmos 1726 3.2 00:07:17 10° NNW 00:10:34 31° W 00:10:54 30° WSW
STARLINK-1230 4.4 00:06:38 10° W 00:10:42 52° N 00:14:47 10° ENE
GEOS 3 Rocket 3.5 00:07:39 25° SE 00:10:48 79° SW 00:16:08 10° NW
STARLINK-1189 3.6 00:08:03 10° WNW 00:11:07 54° NNE 00:14:11 10° E
Cosmos 2058 Rocket 3.4 00:07:29 10° N 00:11:51 59° ENE 00:13:46 32° SE
STARLINK-1188 3.6 00:08:55 10° WNW 00:12:00 54° NNE 00:15:05 10° E
STARLINK-1235 3.3 00:09:37 10° WNW 00:12:42 62° NNE 00:15:47 10° ESE
STARLINK-1187 3.4 00:10:02 10° WNW 00:13:06 58° NNE 00:16:10 10° E
Meteor 1-29 2.9 00:09:45 10° NNE 00:13:08 64° ESE 00:13:32 58° SE
COSMOS 2455 3.0 00:11:39 33° S 00:14:14 60° ESE 00:20:10 10° NE
Cosmos 2228 2.9 00:10:08 10° NNW 00:14:24 71° W 00:15:32 46° SSW
STARLINK-1191 3.5 00:11:24 10° WNW 00:14:28 56° NNE 00:17:31 10° E
SJ 16-02 4.0 00:12:11 10° N 00:15:15 18° NE 00:18:19 10° E
STARLINK-1221 3.5 00:12:16 10° WNW 00:15:20 56° NNE 00:18:24 10° E
STARLINK-1243 4.5 00:11:39 10° W 00:15:42 51° N 00:19:46 10° ENE
STARLINK-1222 3.5 00:13:10 10° WNW 00:16:14 57° NNE 00:19:18 10° E
STARLINK-1214 3.4 00:14:05 10° WNW 00:17:09 57° NNE 00:20:12 10° E
STARLINK-1197 4.5 00:14:42 10° WNW 00:18:46 52° N 00:22:50 10° E
Cosmos 1953 3.7 00:15:32 10° NW 00:18:49 24° W 00:19:26 24° WSW
SL-14 R/B 3.9 00:18:39 35° SE 00:19:44 45° E 00:23:27 10° NNE
Cosmos 1340 Rocket 3.9 00:16:56 10° NNW 00:20:31 31° W 00:21:08 30° WSW
IRAS Rocket 4.2 00:17:53 27° SSE 00:21:05 85° ENE 00:26:41 10° NNW
Cosmos 1300 3.2 00:19:52 10° N 00:23:38 54° ENE 00:25:04 33° SE
Okean 1-7 Rocket 3.8 00:22:03 37° SSE 00:23:40 64° E 00:28:09 10° NNE
Cosmos 1174 3.5 00:23:33 52° SE 00:23:43 53° ESE 00:27:16 10° NE
STARLINK-1198 4.4 00:19:40 10° WNW 00:23:45 53° N 00:27:49 10° E
Cosmos 921 Rocket 4.1 00:23:34 26° SE 00:25:00 33° E 00:28:52 10° NE
BREEZE M DEB (TANK) 3.1 00:26:49 32° E 00:26:49 32° E 00:28:42 10° E
COSMOS 2487 2.8 00:23:56 10° NNW 00:27:16 44° WSW 00:27:18 44° WSW
STARLINK-1199 4.4 00:24:41 10° WNW 00:28:46 54° N 00:32:51 10° E
Cosmos 2219 4.2 00:26:44 10° NNW 00:32:12 45° NE 00:37:35 10° SE
STARLINK-1210 4.3 00:29:39 10° WNW 00:33:45 55° NNE 00:37:50 10° E
Cosmos 1626 2.1 00:34:31 46° SSE 00:35:29 72° E 00:39:12 10° NNE
STARLINK-60 3.4 00:36:27 44° SE 00:36:27 44° SE 00:39:14 10° ENE
Cosmos 1656 Rocket 4.1 00:33:51 24° SW 00:37:08 56° WNW 00:42:39 10° NNE
Cosmos 1606 Rocket 4.2 00:33:39 10° NNW 00:37:41 40° W 00:38:48 33° SW
STARLINK-1219 4.3 00:34:39 10° WNW 00:38:45 57° NNE 00:42:51 10° E
Nadezhda 1 Rocket 4.2 00:35:00 10° N 00:41:08 67° ENE 00:45:52 18° SSE
FALCON 9 R/B 3.7 00:38:25 26° SSW 00:41:14 33° SSE 00:57:10 10° ESE
STARLINK-1211 4.2 00:39:37 10° WNW 00:43:44 59° NNE 00:47:50 10° E
MOZ.5/SAFIR/RUBIN 5/SL-8 3.8 00:44:16 24° SSE 00:47:04 75° ENE 00:51:43 10° N
UNK 4.2 00:44:01 18° SE 00:47:22 57° ENE 00:51:54 10° N
Cosmos 2297 Rocket 3.2 00:42:24 10° NNW 00:47:53 47° NE 00:53:19 10° SE
STARLINK-1245 4.1 00:44:37 10° WNW 00:48:44 61° NNE 00:52:51 10° E
Cosmos 1812 Rocket 4.5 00:46:43 10° N 00:51:03 46° ENE 00:54:30 15° SE
SL-4 R/B 2.5 00:49:13 33° SW 00:51:10 58° SSE 00:55:50 10° ENE
Cosmos 1437 2.7 00:52:48 50° SSE 00:53:19 62° E 00:56:18 10° NNE
STARLINK-1233 4.1 00:49:35 10° WNW 00:53:43 63° NNE 00:57:51 10° E
Cosmos 1674 4.1 00:53:21 22° WSW 00:54:30 26° WNW 00:57:44 10° NNW
SL-19 R/B 4.2 00:51:32 10° NNE 00:56:55 78° WNW 01:00:03 27° SSW
STARLINK-1204 4.0 00:54:35 10° WNW 00:58:44 65° NNE 01:02:51 10° E
ATLAS CENTAUR R/B 1.4 00:56:57 32° SW 00:58:52 83° NW 01:03:02 10° NE
Cosmos 1777 Rocket 4.2 00:54:21 10° NNW 00:59:25 51° WSW 01:01:54 28° SSW
Timation 2 Rocket 3.9 00:53:29 10° NW 00:59:50 67° WSW 01:04:30 18° SSE
SL-16 R/B 2.5 00:56:01 16° SSE 01:01:10 85° ENE 01:07:23 10° NNW
NOSS 3-4 (A) 3.7 00:57:31 19° WSW 01:01:53 65° NW 01:08:21 10° NE
NOSS 3-4 (C) 3.7 00:57:37 19° WSW 01:01:59 65° NW 01:08:27 10° NE
BREEZE-M R/B 3.6 01:01:08 30° S 01:02:03 34° SSE 01:04:59 10° E
FALCON 9 DEB 4.3 01:02:08 27° SSE 01:02:20 27° SE 01:05:18 10° E
STARLINK-1238 3.9 00:59:32 10° WNW 01:03:41 68° NNE 01:07:49 10° ESE
Cosmos 1602 Rocket 4.0 01:01:58 24° SSE 01:04:20 55° E 01:08:34 10° NNE
STARLINK-29 3.4 01:04:34 40° SSE 01:04:48 41° SSE 01:07:51 10° ENE
Cosmos 1455 3.6 01:02:32 10° N 01:06:00 34° ENE 01:09:23 10° SE
ATLAS 3B R/B 2.9 01:00:32 10° NW 01:07:04 50° WSW 01:12:42 15° S
BREEZE-M DEB (TANK) 4.4 01:09:30 10° ESE 01:09:30 10° ESE 01:09:35 10° ESE
STARLINK-1201 3.9 01:04:32 10° WNW 01:08:42 71° NNE 01:12:50 10° ESE
CENTAUR R/B 4.0 01:03:42 10° NW 01:10:38 31° WSW 01:14:47 21° SSW
GP-B 4.3 01:08:09 10° NNE 01:12:21 39° E 01:16:11 12° SSE
BREEZE-M DEB (TANK) 1.0 01:12:39 49° SW 01:13:09 70° SSE 01:15:26 10° E
Meteor 2-1 Rocket 4.2 01:07:50 10° N 01:13:23 82° ENE 01:18:03 15° SSE
STARLINK-1206 3.8 01:09:32 10° WNW 01:13:42 74° NNE 01:17:50 10° ESE
Cosmos-2242 4.4 01:11:39 10° N 01:15:36 36° ENE 01:19:32 10° SE
Cosmos 1745 Rocket 3.9 01:12:45 23° SSW 01:16:48 83° W 01:22:59 10° N
STARLINK-1205 3.7 01:14:31 10° WNW 01:18:40 77° NNE 01:22:49 10° ESE
RESURS DK-1 2.4 01:19:17 29° SW 01:21:20 76° WNW 01:25:30 10° NNE
Cosmos 2227 Rocket 2.5 01:17:53 10° NNW 01:23:36 72° ENE 01:29:15 10° SE
STARLINK-1218 3.7 01:19:29 10° WNW 01:23:38 81° NNE 01:27:47 10° ESE
Cosmos 1356 Rocket 3.6 01:19:38 10° NNW 01:23:41 55° W 01:25:49 26° SSW
Meteor 1-24 Rocket 4.2 01:22:03 22° SW 01:25:08 44° WNW 01:30:19 10° N
CZ-2D R/B 2.1 01:21:22 10° NNE 01:26:41 87° ESE 01:30:15 21° SSW
Cosmos 2369 Rocket 4.3 01:22:57 10° W 01:26:55 19° NW 01:30:53 10° N
Cosmos 1697 Rocket 4.3 01:23:18 10° SSE 01:27:57 27° ESE 01:32:40 10° NE
STARLINK-1254 3.6 01:24:28 10° WNW 01:28:38 85° NNE 01:32:47 10° ESE
ADEOS II 3.1 01:24:21 10° NNE 01:29:18 39° E 01:34:07 10° SSE
ATLAS 2AS CENTAUR R/B 3.7 01:23:17 10° WSW 01:31:01 53° NW 01:38:42 10° NE
CZ-4C R/B 4.0 01:30:46 25° SSW 01:32:45 42° W 01:36:55 10° NNW
STARLINK-1231 3.6 01:29:28 10° WNW 01:33:38 89° NNE 01:37:47 10° ESE
STARLINK-1228 3.6 01:32:10 10° WNW 01:35:14 34° SW 01:38:18 10° SSE
Resurs 1-4 Rocket 2.1 01:31:08 10° NNE 01:36:26 78° WNW 01:40:12 20° SSW
STARLINK-1234 3.5 01:33:36 10° WNW 01:36:27 33° SW 01:37:03 30° S
STARLINK-1212 3.2 01:34:54 10° WNW 01:37:51 41° SW 01:40:49 10° SE
STARLINK-1105 3.2 01:35:22 10° WNW 01:38:19 41° SW 01:41:15 10° SE
STARLINK-1232 3.5 01:34:27 10° WNW 01:38:37 87° SSW 01:42:46 10° ESE
STARLINK-1209 3.6 01:35:53 10° W 01:38:42 30° SW 01:38:42 30° SW
STARLINK-1247 3.2 01:36:16 10° WNW 01:39:15 41° SSW 01:42:12 10° SE
STARLINK-1227 3.2 01:36:45 10° WNW 01:39:41 40° SW 01:42:36 10° SE
USA 81 4.0 01:36:19 18° S 01:40:15 84° W 01:45:34 10° N
STARLINK-1226 3.2 01:37:36 10° WNW 01:40:33 40° SW 01:43:29 10° SE
STARLINK-1224 4.5 01:36:39 10° WNW 01:40:43 52° N 01:44:47 10° E
STARLINK-52 2.9 01:39:41 28° SW 01:41:11 69° SSE 01:44:23 10° ENE
ARIANE 5 R/B 4.0 01:36:51 10° NNE 01:41:21 31° E 01:45:47 10° SSE
STARLINK-1215 3.3 01:38:33 10° WNW 01:41:29 39° SW 01:44:26 10° SE
Cosmos 1758 Rocket 3.8 01:39:23 17° S 01:42:41 67° E 01:47:03 10° NNE
STARLINK-1217 3.3 01:40:19 10° WNW 01:43:15 38° SW 01:46:10 10° SE
STARLINK-1208 3.5 01:39:25 10° WNW 01:43:34 83° SSW 01:47:43 10° ESE
NPP 3.7 01:38:28 10° NNE 01:43:53 79° WNW 01:47:57 18° SSW
STARLINK-1229 3.3 01:41:15 10° WNW 01:44:10 37° SW 01:47:05 10° SE
STARLINK-1270 3.3 01:42:07 10° WNW 01:45:02 37° SW 01:47:57 10° SE
H-2A R/B 4.1 01:41:41 10° SE 01:45:27 30° ENE 01:49:20 10° N
STARLINK-1225 4.4 01:41:39 10° WNW 01:45:44 53° N 01:49:48 10° E
STARLINK-1189 3.4 01:43:58 10° WNW 01:46:52 35° SW 01:49:45 10° SSE
STARLINK-1188 3.4 01:44:51 10° WNW 01:47:45 35° SW 01:50:38 10° SSE
STARLINK-1235 3.7 01:45:38 10° W 01:48:21 28° SW 01:51:04 10° SSE
STARLINK-1271 3.5 01:44:25 10° WNW 01:48:34 78° SSW 01:52:42 10° ESE
STARLINK-1187 3.6 01:46:00 10° W 01:48:48 31° SW 01:51:35 10° SSE
Cosmos 1898 Rocket 3.5 01:43:25 10° NNW 01:48:48 89° WSW 01:54:07 10° SSE
STARLINK-1191 3.5 01:47:20 10° WNW 01:50:11 33° SW 01:53:01 10° SSE
Lacrosse 4 Rocket 2.9 01:46:23 10° NNW 01:50:33 41° NE 01:54:36 10° ESE
Starlink 7 placeholder 3.2 01:49:43 19° WNW 01:50:44 34° NNW 01:52:36 10° NE
STARLINK-1230 4.4 01:46:38 10° WNW 01:50:44 55° NNE 01:54:48 10° E
STARLINK-1221 3.5 01:48:13 10° WNW 01:51:03 33° SW 01:53:53 10° SSE
Meteor 1-21 Rocket 4.2 01:46:49 17° SSW 01:51:14 83° WNW 01:56:58 10° N
STARLINK-1222 3.5 01:49:07 10° WNW 01:51:57 32° SW 01:54:46 10° SSE
Cosmos 1656 3.9 01:48:20 17° SSW 01:52:48 71° ESE 01:58:26 10° NNE
STARLINK-1214 3.5 01:50:03 10° WNW 01:52:51 32° SW 01:55:39 10° SSE
STARLINK-1154 3.5 01:49:24 10° WNW 01:53:33 74° SSW 01:57:40 10° SE
Cosmos 2285 Rocket 4.3 01:47:51 10° NNW 01:54:16 74° ENE 02:00:36 10° SSE
SJ 16-02 1.3 01:49:55 10° NNW 01:54:20 67° WSW 01:58:43 10° S
CZ-4C R/B 3.2 01:50:43 12° S 01:54:46 35° ESE 02:00:01 10° NE
Cosmos 2084 3.5 01:52:18 19° SW 01:55:28 83° NW 01:59:59 10° NE
STARLINK-1243 4.3 01:51:37 10° WNW 01:55:43 56° NNE 01:59:48 10° E
Cosmos 468 Rocket 4.1 01:52:21 16° SSW 01:56:30 72° ESE 02:01:38 10° NNE
STARLINK-1197 3.5 01:54:23 10° WNW 01:58:31 70° SSW 02:02:38 10° SE
Cosmos 1953 Rocket 4.2 01:54:39 10° S 01:59:01 56° E 02:03:23 10° NNE
Cosmos 1937 Rocket 3.6 01:53:48 10° NNW 01:59:04 83° ENE 02:04:21 10° SSE
COSMOS 2455 4.0 01:55:01 10° WSW 02:00:31 36° NW 02:06:03 10° NNE
STARLINK-1236 4.3 01:56:37 10° WNW 02:00:43 58° NNE 02:04:48 10° E
Meteor 2-10 Rocket 3.7 01:55:55 10° NNW 02:01:11 57° W 02:06:01 11° S
Cosmos 921 Rocket 4.3 02:00:21 14° WSW 02:03:19 29° WNW 02:07:06 10° N
STARLINK-1198 3.5 01:59:20 10° WNW 02:03:27 65° SSW 02:07:33 10° SE
Cosmos 1709 Rocket 4.1 02:01:48 15° SSW 02:06:58 64° WNW 02:13:05 10° N
STARLINK-1199 3.6 02:04:21 10° WNW 02:08:28 61° SSW 02:12:32 10° SE
STARLINK-1269 4.2 02:06:34 10° WNW 02:10:41 62° NNE 02:14:48 10° E
STARLINK-60 3.8 02:09:10 10° W 02:12:18 49° NNW 02:15:26 10° ENE
STARLINK-1210 3.6 02:09:20 10° WNW 02:13:24 57° SSW 02:17:28 10° SE
STARLINK-1200 4.1 02:11:34 10° WNW 02:15:42 64° NNE 02:19:49 10° E
Cosmos 2219 3.8 02:11:09 10° NW 02:16:15 35° WSW 02:21:17 10° S
STARLINK-1320 3.2 02:14:52 17° SW 02:17:00 50° SSE 02:20:03 10° ENE
STARLINK-1322 3.2 02:15:11 17° SW 02:17:21 50° SSE 02:20:23 10° ENE
STARLINK-1324 3.2 02:15:32 17° SW 02:17:42 51° SSE 02:20:45 10° ENE
STARLINK-1294 3.2 02:15:47 17° SW 02:17:59 51° SSE 02:21:02 10° ENE
STARLINK-1261 3.2 02:16:10 17° SW 02:18:21 51° SSE 02:21:24 10° ENE
STARLINK-1219 3.7 02:14:19 10° WNW 02:18:22 53° SW 02:22:24 10° SE
STARLINK-1325 3.2 02:16:30 17° SW 02:18:42 51° SSE 02:21:45 10° ENE
STARLINK-1333 3.2 02:16:48 17° SW 02:19:01 52° SSE 02:22:04 10° ENE
STARLINK-1334 3.2 02:17:07 16° SW 02:19:21 52° SSE 02:22:24 10° ENE
STARLINK-1326 3.2 02:17:28 16° SW 02:19:42 52° SSE 02:22:45 10° ENE
STARLINK-1323 3.2 02:17:47 16° SW 02:20:02 53° SSE 02:23:06 10° ENE
Cosmos 1980 Rocket 3.4 02:15:01 10° S 02:20:07 37° ESE 02:25:15 10° NE
STARLINK-1338 3.5 02:17:39 16° SW 02:20:16 51° SSE 02:23:40 10° ENE
STARLINK-1349 3.2 02:18:06 16° SW 02:20:22 53° SSE 02:23:25 10° ENE
STARLINK-1192 4.0 02:16:33 10° WNW 02:20:42 67° NNE 02:24:49 10° ESE
STARLINK-1336 3.2 02:18:28 16° SW 02:20:44 53° SSE 02:23:47 10° ENE
STARLINK-1331 3.2 02:18:45 16° SW 02:21:02 54° SSE 02:24:06 10° ENE
STARLINK-1344 3.1 02:19:05 16° SW 02:21:23 54° SSE 02:24:26 10° ENE
STARLINK-1343 3.1 02:19:25 16° SW 02:21:43 54° SSE 02:24:47 10° ENE
CRYOSAT 2 4.4 02:17:04 10° N 02:21:59 75° W 02:26:51 10° SSW
STARLINK-1346 3.2 02:19:43 16° SW 02:22:05 55° SSE 02:25:11 10° ENE
STARLINK-1328 3.1 02:20:05 16° SW 02:22:25 55° SSE 02:25:29 10° ENE
STARLINK-1354 3.1 02:20:22 16° SW 02:22:43 55° SSE 02:25:48 10° ENE
CZ-4B R/B 4.5 02:21:13 10° E 02:22:49 14° ENE 02:24:26 10° NNE
Cosmos 1328 3.9 02:19:19 12° SSW 02:22:53 64° WNW 02:26:52 10° N
STARLINK-1347 3.1 02:20:44 15° SW 02:23:05 56° SSE 02:26:09 10° ENE
STARLINK-1211 3.8 02:19:18 10° WNW 02:23:19 50° SW 02:27:19 10° SE
STARLINK-1357 3.1 02:21:02 15° SW 02:23:24 56° SSE 02:26:28 10° ENE
STARLINK-1335 3.1 02:21:22 15° SW 02:23:45 56° SSE 02:26:49 10° ENE
STARLINK-1327 3.1 02:21:41 15° SW 02:24:04 57° SSE 02:27:09 10° ENE
STARLINK-1371 3.5 02:21:31 14° SW 02:24:18 55° SSE 02:27:44 10° ENE
STARLINK-1340 3.1 02:22:01 15° SW 02:24:26 57° SSE 02:27:31 10° ENE
STARLINK-1356 3.1 02:22:21 15° SW 02:24:46 57° SSE 02:27:51 10° ENE
ERS-2 2.1 02:21:20 10° SSE 02:25:00 89° WSW 02:28:42 10° NNW
STARLINK-1345 3.1 02:22:41 15° SW 02:25:07 58° SSE 02:28:11 10° ENE
STARLINK-1355 3.1 02:22:59 15° SW 02:25:26 58° SSE 02:28:32 10° ENE
ERBS 4.2 02:22:29 10° NW 02:25:34 33° NNE 02:28:39 10° E
STARLINK-1244 4.0 02:21:31 10° WNW 02:25:39 70° NNE 02:29:48 10° ESE
STARLINK-1321 3.1 02:23:18 15° SW 02:25:46 58° SSE 02:28:50 10° ENE
STARLINK-1358 3.1 02:23:39 15° SW 02:26:08 59° SSE 02:29:12 10° ENE
STARLINK-1341 3.4 02:23:29 14° SW 02:26:20 56° SSE 02:29:47 10° ENE
STARLINK-1332 3.0 02:23:57 14° SW 02:26:26 59° SSE 02:29:31 10° ENE
STARLINK-1348 3.0 02:24:18 14° SW 02:26:48 59° SSE 02:29:53 10° ENE
STARLINK-1330 3.0 02:24:36 14° SW 02:27:07 60° SSE 02:30:12 10° ENE
STARLINK-1363 3.0 02:24:56 14° SW 02:27:27 60° SSE 02:30:32 10° ENE
IRS-1C 4.2 02:22:15 10° NNE 02:27:38 84° WNW 02:32:58 10° SSW
STARLINK-1337 3.0 02:25:15 14° SW 02:27:47 60° SSE 02:30:52 10° ENE
STARLINK-1342 3.0 02:25:35 14° SW 02:28:07 61° SSE 02:31:13 10° ENE
STARLINK-1245 3.9 02:24:19 10° WNW 02:28:18 46° SW 02:32:15 10° SE
STARLINK-1374 3.4 02:25:26 13° SW 02:28:23 58° SSE 02:31:51 10° ENE
STARLINK-1364 3.0 02:25:55 14° SW 02:28:29 61° SSE 02:31:34 10° ENE
STARLINK-1376 3.0 02:26:15 14° SW 02:28:50 61° SSE 02:31:55 10° ENE
STARLINK-1360 3.0 02:26:30 14° SW 02:29:05 62° SSE 02:32:11 10° ENE
STARLINK-1361 3.0 02:26:56 14° SW 02:29:32 62° SSE 02:32:37 10° ENE
STARLINK-1367 3.0 02:27:10 14° SW 02:29:48 62° SSE 02:32:56 10° ENE
STARLINK-1366 3.0 02:27:33 13° SW 02:30:10 63° SSE 02:33:15 10° ENE
CZ-4B R/B 4.4 02:25:45 10° N 02:30:27 38° WNW 02:35:12 10° SW
STARLINK-1339 3.4 02:27:27 13° SW 02:30:27 60° SSE 02:33:55 10° ENE
STARLINK-1138 3.9 02:26:30 10° WNW 02:30:39 73° NNE 02:34:47 10° ESE
SL-4 R/B 2.7 02:26:09 10° W 02:30:57 68° N 02:35:34 10° ENE
Cosmos 2297 Rocket 2.9 02:26:45 10° NW 02:31:46 33° WSW 02:36:45 10° SSW
STARLINK-1377 3.3 02:29:28 12° SW 02:32:33 62° SSE 02:36:02 10° ENE
STARLINK-1233 3.9 02:29:18 10° WNW 02:33:14 43° SW 02:37:10 10° SE
STARLINK-1203 3.9 02:29:19 10° WNW 02:33:32 75° NNE 02:37:44 10° ESE
STARLINK-1353 3.3 02:31:17 12° SW 02:34:24 64° SSE 02:37:52 10° ENE
STARLINK-1143 3.8 02:31:29 10° WNW 02:35:38 76° NNE 02:39:47 10° ESE
Cosmos 2082 3.8 02:30:07 10° NW 02:35:40 58° WSW 02:41:11 10° S
STARLINK-1375 3.3 02:33:04 12° SW 02:36:16 66° SSE 02:39:44 10° ENE
Cosmos 540 Rocket 3.7 02:33:06 10° SSW 02:38:12 70° ESE 02:43:20 10° NNE
STARLINK-1204 4.0 02:34:19 10° WNW 02:38:13 40° SW 02:42:05 10° SSE
ATLAS CENTAUR R/B 3.5 02:35:19 10° WNW 02:38:21 19° NNW 02:41:15 10° NNE
STARLINK-1350 3.2 02:35:22 11° SW 02:38:40 68° SSE 02:42:08 10° ENE
FALCON 9 DEB 3.3 02:35:42 10° WSW 02:39:09 71° NNW 02:42:38 10° ENE
STARLINK-1241 3.8 02:36:27 10° WNW 02:40:37 80° NNE 02:44:46 10° ESE
STARLINK-29 3.6 02:37:48 10° W 02:40:56 51° NNW 02:44:03 10° ENE
STARLINK-1352 3.2 02:37:39 10° SW 02:41:05 71° SSE 02:44:36 10° ENE
Cosmos 1455 3.7 02:38:40 10° NW 02:41:24 19° W 02:44:07 10° SW
Landsat 5 3.9 02:37:24 10° SSE 02:41:54 77° ENE 02:46:27 10° NNW
CZ-2D R/B 3.7 02:37:54 10° NNE 02:42:01 73° ESE 02:46:12 10° S
Cosmos 1825 Rocket 4.3 02:38:22 10° SW 02:42:23 37° WNW 02:46:26 10° N
Cosmos 2278 4.1 02:37:04 10° SSW 02:42:38 65° ESE 02:48:16 10° NNE
STARLINK-1238 4.1 02:39:18 10° WNW 02:43:08 37° SW 02:46:58 10° SSE
STARLINK-1368 3.2 02:39:45 10° WSW 02:43:15 74° SSE 02:46:47 10° ENE
USA 234 4.3 02:37:41 10° ENE 02:43:38 36° SE 02:49:32 10° SSW
Meteor 1-11 4.3 02:39:13 10° SSW 02:44:51 78° WNW 02:50:29 10° N
Meteor 1-28 Rocket 3.3 02:41:09 10° S 02:44:53 57° W 02:48:37 10° NNW
STARLINK-1369 3.2 02:41:41 10° WSW 02:45:10 76° SSE 02:48:41 10° ENE
SL-16 R/B 4.0 02:41:26 10° SW 02:45:33 18° W 02:49:43 10° NW
STARLINK-1239 3.7 02:41:26 10° WNW 02:45:37 83° NNE 02:49:45 10° ESE
ATLAS CENTAUR R/B 3.4 02:43:39 10° W 02:46:45 26° SW 02:52:49 10° SSE
STARLINK-1372 3.2 02:44:07 10° WSW 02:47:39 78° SSE 02:51:11 10° ENE
Cosmos 2263 Rocket 3.3 02:42:12 10° NNW 02:47:42 51° NE 02:53:07 10° SE
STARLINK-1201 4.2 02:44:20 10° WNW 02:48:06 35° SW 02:51:52 10° SSE
Cosmos 2074 Rocket 4.1 02:41:58 10° SSW 02:48:16 76° W 02:54:36 10° N
Cosmos 372 Rocket 3.9 02:44:16 10° NNW 02:49:24 82° WSW 02:54:32 10° SSE
GP-B 4.4 02:45:52 10° NNW 02:49:28 24° WNW 02:53:02 10° SW
STARLINK-1378 3.2 02:46:20 10° WSW 02:49:52 81° SSE 02:53:25 10° ENE
IRS-1D 4.4 02:45:18 10° N 02:50:13 38° WNW 02:55:05 10° SW
STARLINK-1329 3.2 02:46:50 10° WSW 02:50:23 81° SSE 02:53:56 10° ENE
Cosmos 841 Rocket 3.6 02:45:14 10° SSW 02:50:30 87° WNW 02:55:47 10° NNE
STARLINK-1240 3.7 02:46:26 10° WNW 02:50:35 87° NNE 02:54:44 10° ESE
STARLINK-1365 3.2 02:47:36 10° WSW 02:51:07 84° SSE 02:54:39 10° ENE
STARLINK-1379 3.2 02:48:33 10° WSW 02:52:05 83° SSE 02:55:38 10° ENE
STARLINK-1362 3.2 02:49:08 10° WSW 02:52:41 83° SSE 02:56:15 10° ENE
Cosmos-2242 4.3 02:49:33 10° NW 02:52:59 24° W 02:56:24 10° SW
STARLINK-1206 4.3 02:49:21 10° WNW 02:53:03 32° SW 02:56:45 10° SSE
Cosmos 1869 3.6 02:49:54 10° N 02:53:50 71° E 02:57:41 10° SSE
Cosmos 1892 4.4 02:50:46 10° SSE 02:54:15 34° E 02:57:44 10° NNE
Cosmos 1400 Rocket 3.2 02:50:25 10° NNW 02:54:22 46° W 02:58:19 10° S
STARLINK-1373 3.2 02:51:25 10° WSW 02:54:58 86° SSE 02:58:33 10° ENE
COBE Rocket 4.2 02:50:11 10° S 02:54:59 52° W 02:59:56 10° NNW
Cosmos 2221 2.6 02:50:51 10° N 02:55:12 85° E 02:59:33 10° S
STARLINK-1216 3.6 02:51:24 10° WNW 02:55:34 89° SSW 02:59:43 10° ESE
